Waarnemingen

Advertentie
Mijn weer
Kolmaardenstroemsfors, Zweden (2558): temperatuur & dauwpunt: 16.06.2018 09:00:00 - 22.06.2018 09:00:00 (CEST)Kolmaardenstroemsfors, Zweden (2558): windsnelheid & windstoten: 16.06.2018 09:00:00 - 22.06.2018 09:00:00 (CEST)Kolmaardenstroemsfors, Zweden (2558): windrichting: 16.06.2018 09:00:00 - 22.06.2018 09:00:00 (CEST)Kolmaardenstroemsfors, Zweden (2558): luchtdruk: 16.06.2018 09:00:00 - 22.06.2018 09:00:00 (CEST)Kolmaardenstroemsfors, Zweden (2558): zicht: 16.06.2018 09:00:00 - 22.06.2018 09:00:00 (CEST)Kolmaardenstroemsfors, Zweden (2558): neerslag: 16.06.2018 09:00:00 - 22.06.2018 09:00:00 (CEST)
Datum & Tijd tt [°C] td [°C] ff [km/u] ff [kn] fx [km/u] fx [kn] dd ppp [hPa] vv [km] rr [mm]
22.06.2018 09:00:00 10,1 7,9 18 10 49 26 NW 1000,8 49 0,1
22.06.2018 08:00:00 7,7 6,8 15 8 49 26 WNW 1000,2 29 0,8
22.06.2018 07:00:00 7,8 7,0 17 9 44 24 WNW 999,3 11 1,3
22.06.2018 06:00:00 8,1 7,3 16 9 41 22 NW 998,6 14 0,8
22.06.2018 05:00:00 8,3 7,5 16 9 40 21 WNW 997,8 11 0,5
22.06.2018 04:00:00 8,2 7,6 17 9 39 21 WNW 997,3 43 0,5
22.06.2018 03:00:00 7,9 7,3 16 9 39 21 W 997,2 11 0,3
22.06.2018 02:00:00 7,6 7,0 11 6 31 17 WNW 997,6 16 0,5
22.06.2018 01:00:00 7,2 6,5 14 8 30 16 NW 998,1 18 0,6
22.06.2018 00:00:00 7,6 7,0 11 6 38 20 NW 998,0 11 0,7
21.06.2018 23:00:00 7,8 7,2 11 6 38 20 NW 998,1 11 0,7
21.06.2018 22:00:00 8,3 7,5 19 11 36 19 NW 997,9 16 0,4
21.06.2018 21:00:00 8,8 8,2 11 6 32 17 WNW 997,6 26 0,2
21.06.2018 20:00:00 9,2 8,3 13 7 32 17 WNW 997,7 4,5 0,0
21.06.2018 19:00:00 10,5 8,4 16 8 29 16 NW 997,7 13 0,0
21.06.2018 18:00:00 12,1 8,4 16 9 29 16 NW 997,5 50 0,0
21.06.2018 17:00:00 13,3 8,8 9 5 29 16 WNW 997,9 50 0,0
21.06.2018 16:00:00 13,2 9,8 14 8 32 18 WNW 998,1 50 0,0
21.06.2018 15:00:00 13,5 9,7 12 7 46 25 W 998,5 50 0,0
21.06.2018 14:00:00 13,2 10,4 14 8 46 25 ZW 998,7 50 0,0
21.06.2018 13:00:00 15,1 10,3 20 11 37 20 WZW 998,8 50 0,0
21.06.2018 12:00:00 14,6 11,0 10 5 24 13 ZW 999,0 50 0,0
21.06.2018 11:00:00 13,0 10,9 12 6 31 17 WZW 1000,1 10 0,0
21.06.2018 10:00:00 14,4 11,0 12 7 31 17 WZW 999,9 45 0,0
21.06.2018 09:00:00 13,4 11,5 12 7 30 16 WZW 1000,6 40 0,0
21.06.2018 08:00:00 13,3 13,0 12 7 27 14 W 1000,9 23 0,3
21.06.2018 07:00:00 12,7 12,4 5 3 13 7 Z 1001,4 0,7 0,0
21.06.2018 06:00:00 11,5 11,2 3 2 8 5 O 1002,1 2,6 0,0
21.06.2018 05:00:00 11,0 10,7 4 2 9 5 ONO 1002,7 6 0,9
21.06.2018 04:00:00 10,9 10,6 5 3 15 8 NNO 1003,4 4,1 0,5
21.06.2018 03:00:00 11,3 11,0 5 3 15 8 ZO 1003,8 0,6 0,5
21.06.2018 02:00:00 10,6 10,3 5 3 11 6 ZO 1004,9 0,2 0,2
21.06.2018 01:00:00 10,3 10,0 6 3 11 6 ZZO 1005,8 0,2 0,0
21.06.2018 00:00:00 10,0 9,7 5 3 11 6 Z 1006,8 0,3 0,0
20.06.2018 23:00:00 9,8 9,3 2 1 8 4 ZO 1007,3 0,5 0,0
20.06.2018 22:00:00 10,1 9,6 4 2 10 5 ZW 1007,8 0,7 0,0
20.06.2018 21:00:00 10,0 9,5 0 0 12 7 N 1007,7 19 0,0
20.06.2018 20:00:00 10,1 9,6 3 1 16 8 NNO 1008,2 10 0,2
20.06.2018 19:00:00 9,9 9,4 8 4 16 8 N 1008,4 7 1,6
20.06.2018 18:00:00 10,1 9,3 3 2 26 14 N 1009,0 4,0 1,1
20.06.2018 17:00:00 10,3 9,2 3 2 32 17 ZW 1010,7 7 0,5
20.06.2018 16:00:00 12,2 7,7 9 5 41 22 WZW 1011,5 17 0,0
20.06.2018 15:00:00 14,7 4,7 14 8 42 23 WZW 1011,5 45 0,0
20.06.2018 14:00:00 16,0 3,7 19 10 42 23 WZW 1011,8 37 0,0
20.06.2018 13:00:00 15,3 4,4 20 11 41 22 WZW 1012,2 36 0,0
20.06.2018 12:00:00 15,9 4,6 20 11 45 24 WZW 1012,9 42 0,0
20.06.2018 11:00:00 17,4 5,0 19 10 45 24 WZW 1012,2 36 0,0
20.06.2018 10:00:00 16,5 4,8 16 9 43 23 WZW 1012,3 37 0,0
20.06.2018 09:00:00 14,7 4,7 19 11 44 24 WZW 1012,3 37 0,0
20.06.2018 08:00:00 13,3 5,2 21 11 44 24 W 1012,6 30 0,0
20.06.2018 07:00:00 12,3 5,7 16 9 36 19 W 1012,8 26 0,0
20.06.2018 06:00:00 11,0 6,7 17 9 34 18 W 1012,5 23 0,0
20.06.2018 05:00:00 9,9 7,0 14 8 34 18 WZW 1012,5 21 0,0
20.06.2018 04:00:00 9,5 6,8 14 7 37 20 WZW 1012,3 20 0,0
20.06.2018 03:00:00 9,8 6,3 14 8 37 20 WZW 1011,9 26 0,0
20.06.2018 02:00:00 10,5 6,3 16 8 36 19 WZW 1011,2 26 0,0
20.06.2018 01:00:00 10,9 6,3 15 8 37 20 WZW 1011,1 28 0,0
20.06.2018 00:00:00 11,3 6,0 13 7 46 25 WZW 1011,0 30 0,0
19.06.2018 23:00:00 12,0 5,6 20 11 46 25 WZW 1010,7 31 0,0
19.06.2018 22:00:00 13,1 5,3 19 10 58 32 W 1010,3 33 0,0
19.06.2018 21:00:00 14,3 4,8 18 10 58 32 WZW 1009,7 31 0,0
19.06.2018 20:00:00 15,9 4,3 24 13 64 34 WZW 1009,3 39 0,0
19.06.2018 19:00:00 17,0 4,0 23 12 64 34 WZW 1008,4 30 0,0
19.06.2018 18:00:00 18,5 3,1 23 13 58 32 WZW 1007,8 40 0,0
19.06.2018 17:00:00 20,0 1,4 22 12 60 33 W 1007,4 47 0,0
19.06.2018 16:00:00 20,1 1,5 23 12 60 33 WZW 1007,0 38 0,0
19.06.2018 15:00:00 19,7 1,2 27 15 68 37 W 1006,6 35 0,0
19.06.2018 14:00:00 19,4 1,4 30 16 68 37 W 1006,5 39 0,0
19.06.2018 13:00:00 19,1 3,7 25 14 58 31 WZW 1005,9 40 0,0
19.06.2018 12:00:00 18,1 5,3 26 14 58 31 WZW 1005,4 31 0,0
19.06.2018 11:00:00 16,4 8,4 22 12 53 29 WZW 1005,7 28 0,1
19.06.2018 10:00:00 12,4 8,7 24 13 53 29 WZW 1006,4 16 0,1
19.06.2018 09:00:00 13,8 7,3 22 12 55 30 WZW 1005,8 27 0,0
19.06.2018 08:00:00 13,4 7,0 21 11 55 30 WZW 1005,8 31 0,0
19.06.2018 07:00:00 13,0 7,0 16 9 51 27 WZW 1006,4 34 0,0
19.06.2018 06:00:00 13,5 9,2 14 8 42 23 WZW 1006,2 47 0,0
19.06.2018 05:00:00 14,1 9,5 17 9 41 22 WZW 1006,5 50 0,0
19.06.2018 04:00:00 14,0 11,4 15 8 34 18 ZW 1006,9 50 0,0
19.06.2018 03:00:00 13,6 12,0 12 7 36 20 ZW 1007,6 49 0,0
19.06.2018 02:00:00 13,8 12,9 14 8 36 20 ZW 1008,3 7 0,1
19.06.2018 01:00:00 15,3 11,0 12 6 32 17 ZW 1008,5 50 0,0
19.06.2018 00:00:00 15,6 10,4 12 7 32 17 ZZW 1009,6 50 0,0
18.06.2018 23:00:00 15,5 9,2 10 5 27 15 ZZW 1010,1 50 0,0
18.06.2018 22:00:00 15,9 8,6 9 5 28 15 ZZW 1010,5 50 0,0
18.06.2018 21:00:00 16,3 8,3 10 5 31 17 WZW 1010,9 50 0,0
18.06.2018 20:00:00 17,7 7,4 15 8 40 22 WZW 1010,8 50 0,0
18.06.2018 19:00:00 17,7 6,8 14 8 40 22 W 1011,3 50 0,0
18.06.2018 18:00:00 18,9 7,3 13 7 46 25 ZW 1011,4 46 0,0
18.06.2018 17:00:00 19,8 6,5 19 10 46 25 WZW 1011,8 50 0,0
18.06.2018 16:00:00 18,8 6,9 16 8 39 21 WZW 1012,2 47 0,0
18.06.2018 15:00:00 17,7 8,0 14 8 39 21 WZW 1012,5 50 0,0
18.06.2018 14:00:00 17,6 8,2 11 6 36 19 WZW 1012,4 50 0,0
18.06.2018 13:00:00 16,2 8,9 17 9 36 19 ZW 1012,7 49 0,0
18.06.2018 12:00:00 15,6 8,8 11 6 40 22 ZW 1012,7 46 0,0
18.06.2018 11:00:00 14,7 8,9 16 8 40 22 WZW 1012,6 48 0,0
18.06.2018 10:00:00 14,7 8,4 14 8 32 17 WZW 1012,5 43 0,0
18.06.2018 09:00:00 15,0 8,2 11 6 30 16 WZW 1012,4 44 0,0
18.06.2018 08:00:00 13,7 9,3 13 7 30 16 ZW 1012,4 40 0,0
18.06.2018 07:00:00 12,0 9,0 10 5 22 12 ZW 1012,5 37 0,0
18.06.2018 06:00:00 10,4 8,5 8 4 16 9 ZW 1012,6 45 0,0
18.06.2018 05:00:00 9,1 7,7 6 4 16 8 ZW 1012,5 38 0,0
18.06.2018 04:00:00 8,7 7,3 8 4 16 9 ZW 1012,6 39 0,0
18.06.2018 03:00:00 9,0 7,9 7 4 22 12 ZZW 1012,7 41 0,0
18.06.2018 02:00:00 9,4 7,5 7 4 22 12 WZW 1012,6 50 0,0
18.06.2018 01:00:00 9,7 8,1 9 5 21 11 WZW 1012,3 49 0,0
18.06.2018 00:00:00 10,6 8,2 7 4 31 17 ZW 1011,8 50 0,0
17.06.2018 23:00:00 12,3 8,6 9 5 31 17 W 1011,3 50 0,0
17.06.2018 22:00:00 12,9 11,1 12 7 27 15 WZW 1010,9 50 0,0
17.06.2018 21:00:00 13,5 11,7 10 5 27 15 WZW 1010,5 50 0,1
17.06.2018 20:00:00 15,9 14,1 7 4 15 8 WZW 1009,7 19 0,0
17.06.2018 19:00:00 15,5 13,7 8 5 27 15 ZZO 1009,7 19 0,0
17.06.2018 18:00:00 15,1 13,1 10 5 27 15 ZO 1010,1 25 0,0
17.06.2018 17:00:00 15,0 12,5 11 6 27 15 OZO 1010,4 30 0,0
17.06.2018 16:00:00 12,2 11,1 9 5 27 15 O 1011,2 20 3,5
17.06.2018 15:00:00 12,6 11,7 8 4 24 13 Z 1013,1 3,7 3,5
17.06.2018 14:00:00 13,5 11,9 6 4 29 16 ZZO 1012,7 12 0,2
17.06.2018 13:00:00 14,1 10,7 9 5 29 16 ZO 1012,6 14 0,5
17.06.2018 12:00:00 17,3 10,4 11 6 27 14 ZO 1013,2 35 0,0
17.06.2018 11:00:00 17,2 10,1 10 5 27 14 OZO 1013,6 47 0,0
17.06.2018 10:00:00 17,6 10,7 10 5 19 11 ZO 1013,9 44 0,0
17.06.2018 09:00:00 16,7 9,4 5 3 14 8 ZO 1014,3 48 0,0
17.06.2018 08:00:00 15,7 8,4 4 2 17 9 ZO 1014,6 44 0,0
17.06.2018 07:00:00 15,8 8,0 6 4 17 9 ZO 1014,9 50 0,0
17.06.2018 06:00:00 15,2 7,5 9 5 22 12 ZO 1015,0 50 0,0
17.06.2018 05:00:00 14,4 9,8 8 4 24 13 ZO 1015,6 50 0,0
17.06.2018 04:00:00 14,5 8,9 10 5 24 13 ZO 1015,3 50 0,0
17.06.2018 03:00:00 14,5 7,3 7 4 19 10 ZO 1015,6 50 0,0
17.06.2018 02:00:00 14,5 6,6 7 4 19 10 ZZO 1015,7 50 0,0
17.06.2018 01:00:00 14,0 6,4 7 4 16 8 ZO 1016,1 50 0,0
17.06.2018 00:00:00 14,4 5,5 6 4 15 8 ZO 1016,3 50 0,0
16.06.2018 23:00:00 15,1 5,6 6 3 16 8 ZZO 1016,3 50 0,0
16.06.2018 22:00:00 15,9 5,5 6 4 18 10 ZO 1016,4 50 0,0
16.06.2018 21:00:00 17,1 5,7 7 4 18 10 ZZO 1016,2 50 0,0
16.06.2018 20:00:00 18,1 6,6 7 4 24 13 ZZO 1016,2 50 0,0
16.06.2018 19:00:00 19,0 6,1 10 5 27 14 ZZO 1016,1 50 0,0
16.06.2018 18:00:00 19,6 6,0 11 6 27 14 ZZO 1016,1 50 0,0
16.06.2018 17:00:00 21,7 6,4 11 6 23 12 ZO 1016,1 38 0,0
16.06.2018 16:00:00 20,8 5,2 10 5 23 12 ZW 1016,2 36 0,0
16.06.2018 15:00:00 20,2 5,0 10 5 21 12 ZW 1016,4 38 0,0
16.06.2018 14:00:00 20,2 6,9 8 5 24 13 WZW 1016,8 27 0,0
16.06.2018 13:00:00 20,2 6,2 9 5 24 13 ZZW 1016,9 39 0,0
16.06.2018 12:00:00 20,3 6,6 10 5 25 14 WZW 1017,0 34 0,0
16.06.2018 11:00:00 19,9 6,9 10 6 25 14 ZZW 1016,9 33 0,0
16.06.2018 10:00:00 19,4 6,8 8 5 21 12 ZZW 1017,0 34 0,0
16.06.2018 09:00:00 16,8 8,2 5 3 13 7 ZZW 1017,1 36 0,0

tt = temperatuur
td = dauwpunt
ff = windsnelheid
fx = windstoten
dd = windrichting
ppp = luchtdruk
vv = zicht
rr = neerslag

Weerstations in de omgeving